Regional Weather Roundup
Issued by NWS Charleston, SC

Current Version | Previous Version | Graphics & Text | Print | Product List | Glossary On
Versions: 1 2 3 4 5 6 7 8 9 10 11 12 13 14 15 16 17 18 19 20 21 22 23 24 25 26 27 28 29 30 31 32 33 34 35 36 37 38 39 40 41 42 43 44 45 46 47 48 49 50
000 ASUS42 KCHS 050912 RWRCHS REGIONAL WEATHER ROUNDUP NATIONAL WEATHER SERVICE CHARLESTON SC 500 AM EDT SAT SEP 05 2015 NOTE: "FAIR" INDICATES FEW OR NO CLOUDS BELOW 12,000 FEET WITH NO SIGNIFICANT WEATHER AND/OR OBSTRUCTIONS TO VISIBILITY. NOT ALL STATIONS ARE QUALITY CONTROLLED BY THE NATIONAL WEATHER SERVICE. USE DATA WITH CAUTION...ESPECIALLY DEWPOINT OBSERVATIONS. SCZ027-030-031-034>040-042>050-051000- ...SOUTHEAST SOUTH CAROLINA... CITY SKY/WX TMP DP RH WIND PRES REMARKS N CHARLESTON MOCLDY 73 69 87 N6 30.01S WATERFRONT PRK N/A 77 73 87 N7 29.98S MOUNT PLEASANT FAIR 72 72 100 N5 30.01R JOHNS ISLAND FAIR 75 72 88 N5 30.01S PINOPOLIS N/A 79 70 73 N15 29.93F MONCKS CORNER FAIR 75 68 78 N8 30.03R SUMMERVILLE NOT AVBL BEAUFORT MCAS MOCLDY 75 73 93 NE5 30.01S BEAUFORT ARPT CLOUDY 77 75 94 CALM 30.01R HILTON HEAD IS PTCLDY 79 79 100 NW6 30.01S WALTERBORO CLOUDY 73 70 88 CALM 30.03S ALLENDALE FAIR 73 70 88 CALM 30.01S ...SOUTHERN MIDLANDS AND PEE DEE... CITY SKY/WX TMP DP RH WIND PRES REMARKS GEORGETOWN NOT AVBL KINGSTREE NOT AVBL ORANGEBURG CLOUDY 71 67 87 SW3 30.03F BARNWELL FAIR 73 70 88 CALM 30.02F AIKEN FAIR 68 63 83 N5 30.07S MANNING FAIR 68 68 100 N6 30.04S COLUMBIA CLOUDY 71 67 87 N8 30.04F SUMTER CLOUDY 71 69 92 N2 30.03S FLORENCE MOCLDY 72 68 87 N7 30.05R MYRTLE BEACH CLEAR 72 64 78 N8 30.04R N MYRTLE BEACH PTCLDY 71 68 90 N5 30.02R $$ GAZ063-065-086>088-099>101-113>116-118-119-134>141-150-051000- ...SOUTHEAST GEORGIA... CITY SKY/WX TMP DP RH WIND PRES REMARKS SAVANNAH ARPT MOCLDY 72 69 90 N6 30.01R HUNTER AAF CLEAR 73 73 100 N2 29.98R FORT STEWART CLEAR 72 71 94 CALM 29.98S STATESBORO CLEAR 71 32 24 CALM 30.01F SYLVANIA NOT AVBL CLAXTON NOT AVBL ...CSRA...CENTRAL AND FAR SOUTHEAST GEORGIA... CITY SKY/WX TMP DP RH WIND PRES REMARKS THOMSON MOCLDY 73 72 96 N3 30.10S AUGUSTA-BUSH MOCLDY 73 68 84 NW6 30.01F AUGUSTA-DANIEL MOCLDY 73 68 84 NW5 30.04F SWAINSBORO FAIR 72 70 94 NE5 30.03S VIDALIA CLEAR 72 70 94 NE6 30.01S EASTMAN FAIR 73 73 100 CALM 30.03S HAZLEHURST FAIR 73 73 100 NE5 30.00R ALMA CLEAR 71 70 96 CALM 30.00R FOG WAYCROSS CLEAR 74 74 100 NE3 29.99F JESUP FAIR 73 73 100 CALM 30.00S BAXLEY FAIR 72 70 94 NE3 30.00R BRUNSWICK CLEAR 72 72 100 CALM 30.00R SAINT SIMONS CLEAR 75 72 90 NW6 29.99R $$ SCZ027-028-034-036>038-045-046-048>050-GAZ119-141-051000- ...LAKE AND SUPPLEMENTAL COASTAL OBSERVATIONS... STATION/POSITION TIME TEMP WIND PRES WAVE SWELL AIR SEA DIR/SP/G HT/PER HT/PER/DIR (UTC) (F) (DEG/KT/KT) (MB) (FT/S) (FT/S/D) UPR LAKE MARION NOT AVBL WINYAH BAY NOT AVBL LAKE MURRAY 0800 71 70/ 2/ 4 1017.6R ACE BASIN NERRS NOT AVBL FORT PULASKI 0800 78 84 350/ 4/ 5 1015.9R SAPELO ISLAND 0800 75 20/ 2 1015.0S $$ ANZ835-935-AMZ111-154-330-350-352-354-370-450-454-472-051000- ...C-MAN AND BUOY OBSERVATIONS... STATION/POSITION TIME TEMP WIND PRES WAVE SWELL AIR SEA DIR/SP/G HT/PER HT/PER/DIR (UTC) (F) (DEG/KT/KT) (MB) (FT/S) (FT/S/D) BUOY 41004 0850 81 84 20/ 12/ 14 1014.9F 1/ 8 BUOY 41008 0850 82 84 340/ 4/ 6 1015.3R 1 FOLLY BEACH CMAN 0800 78 10/ 13/ 14 1016.1S CAPERS NEARSHORE 0808 79 20/ 12/ 14 1015.9F FRIPP NEARSHORE 0800 82 30/ 10/ 12 1015.1R STATION/POSITION TIME TEMP WIND PRES WAVE SWELL AIR SEA DIR/SP/G HT/PER HT/PER/DIR (UTC) (F) (DEG/KT/KT) (MB) (FT/S) (FT/S/D) 5E ST. MARYS GA 0821 85 N/A 1 FRYING PAN BUOY 0850 82 82 40/ 14/ 16 1016.0R 1/ 2 BUOY 41025 0850 81 84 40/ 17/ 19 1015.6R 4/ 5 2/310/10 CAPE LOOKOUT NC 0800 77 40/ 17/ 19 1015.1F BUOY 41002 0850 82 84 30/ 8/ 10 1013.9R 2/ 9 2/ 70/ 9 BUOY 41010 0820 83 85 50/ 6/ 8 1013.9R ST AUGUSTINE FL 0900 81 84 10/ 6/ 7 1015.6R $$

USA.gov is the U.S. government's official web portal to all federal, state and local government web resources and services.